This demonstration page uses our WeatherBlox Daily Observations layout. Learn more.

Left ArrowRight Arrow

Hourly Observations for April 10, 2018

Temp ( °F °C ) Dew Point ( °F °C ) Humidity (%) Winds ( mph kmh ) Pressure ( in mb ) Visibility ( mi km ) Precip ( " mm )
12:51 am 00:51 Clear 62 16.7 10 -12.2 13 13 E 5 7 29.95 1014 10 16 0.00 0.00
1:51 am 01:51 Clear 59 15 11 -11.7 15 15 SW 5 7 29.96 1015 10 16 0.00 0.00
2:51 am 02:51 Clear 54 12.2 11 -11.7 18 18 NE 3 6 29.98 1015 10 16 0.00 0.00
3:51 am 03:51 Clear 56 13.3 12 -11.1 17 17 Calm 29.98 1015 10 16 0.00 0.00
4:51 am 04:51 Clear 54 12.2 11 -11.7 18 18 S 8 13 30.00 1016 10 16 0.00 0.00
5:51 am 05:51 Clear 50 10 14 -10 24 24 SSE 9 15 30.04 1017 10 16 0.00 0.00
6:51 am 06:51 Sunny 61 16.1 12 -11.1 14 14 SE 9 15 30.07 1018 10 16 0.00 0.00
7:51 am 07:51 Sunny 65 18.3 13 -10.6 13 13 SE 12 19 30.09 1019 10 16 0.00 0.00
8:51 am 08:51 Sunny 69 20.6 18 -7.8 14 14 S 10 17 30.09 1019 10 16 0.00 0.00
9:51 am 09:51 Sunny 74 23.3 27 -2.8 17 17 SE 9 15 30.09 1019 10 16 0.00 0.00
10:51 am 10:51 Sunny 78 25.6 30 -1.1 17 17 S 12 19 30.06 1018 10 16 0.00 0.00
11:51 am 11:51 Sunny 81 27.2 29 -1.7 15 15 S 10 17 30.04 1017 10 16 0.00 0.00
12:51 pm 12:51 Sunny 84 28.9 29 -1.7 13 13 S 10 17 30.00 1016 10 16 0.00 0.00
1:51 pm 13:51 Sunny 86 30 26 -3.3 11 11 SW 9 15 29.96 1015 10 16 0.00 0.00
2:51 pm 14:51 Sunny 87 30.6 23 -5 9 9 SE 10 17 29.93 1014 10 16 0.00 0.00
3:51 pm 15:51 Sunny 88 31.1 20 -6.7 8 8 SE 7 11 29.91 1013 10 16 0.00 0.00
4:51 pm 16:51 Sunny 87 30.6 19 -7.2 8 8 Calm 29.89 1012 10 16 0.00 0.00
5:51 pm 17:51 Sunny 87 30.6 19 -7.2 8 8 ENE 3 6 29.89 1012 10 16 0.00 0.00
6:51 pm 18:51 Clear 80 26.7 19 -7.2 10 10 ENE 5 7 29.88 1012 10 16 0.00 0.00
7:51 pm 19:51 Clear 72 22.2 19 -7.2 13 13 ENE 5 7 29.89 1012 10 16 0.00 0.00
10:51 pm 22:51 Clear 65 18.3 20 -6.7 18 18 Calm 29.90 1013 10 16 0.00 0.00
11:51 pm 23:51 Clear 60 15.6 20 -6.7 21 21 Calm 29.90 1013 10 16 0.00 0.00

Powered by AerisWeather